When you browse on this site, cookies collect data to enhance your experience and personalize the content and advertising you see.
Visit our Privacy Policy to learn more. By continuing to use the site, you agree to this use of cookies and data.
  • en Suisse
  • Liste des pays
  • À 7 jours
  • Température de l'eau
  • Carte météo
  • Widgets météo
  • user-avatar
    Se connecter

    Météo par heure à Podmogile

    Ce jour, 25 Août, Dimanche

    Heure Température Précipitation Vent Pression Humidité
    00:00 +13°C° 0 mm 1 m/s 761 mmHg 87%
    01:00 +12°C° 0 mm 1 m/s 761 mmHg 88%
    02:00 +12°C° 0 mm 1 m/s 762 mmHg 90%
    03:00 +11°C° 0 mm 1 m/s 762 mmHg 91%
    04:00 +10°C° 0 mm 0 m/s 762 mmHg 92%
    05:00 +10°C° 0 mm 0 m/s 762 mmHg 93%
    06:00 +12°C° 0 mm 0 m/s 762 mmHg 86%
    07:00 +15°C° 0 mm 1 m/s 763 mmHg 78%
    08:00 +16°C° 0 mm 0 m/s 763 mmHg 70%
    09:00 +17°C° 0 mm 0 m/s 763 mmHg 64%
    10:00 +19°C° 0 mm 0 m/s 763 mmHg 59%
    11:00 +22°C° 0 mm 1 m/s 763 mmHg 54%
    12:00 +23°C° 0 mm 1 m/s 763 mmHg 52%
    13:00 +23°C° 0 mm 1 m/s 763 mmHg 50%
    14:00 +24°C° 0 mm 1 m/s 763 mmHg 48%
    15:00 +21°C° 0 mm 0 m/s 762 mmHg 51%
    16:00 +21°C° 0 mm 0 m/s 762 mmHg 54%
    17:00 +20°C° 0 mm 0 m/s 762 mmHg 56%
    18:00 +18°C° 0 mm 0 m/s 762 mmHg 63%
    19:00 +16°C° 0 mm 0 m/s 762 mmHg 70%
    20:00 +15°C° 0 mm 1 m/s 762 mmHg 77%
    21:00 +14°C° 0 mm 1 m/s 762 mmHg 79%
    22:00 +14°C° 0 mm 1 m/s 762 mmHg 81%
    23:00 +13°C° 0 mm 1 m/s 762 mmHg 84%

    Demain, 26 Août, Lundi

    Heure Température Précipitation Vent Pression Humidité
    00:00 +13°C° 0 mm 1 m/s 762 mmHg 86%
    01:00 +13°C° 0 mm 1 m/s 762 mmHg 87%
    02:00 +12°C° 0 mm 1 m/s 762 mmHg 89%
    03:00 +12°C° 0 mm 1 m/s 762 mmHg 91%
    04:00 +12°C° 0 mm 1 m/s 762 mmHg 92%
    05:00 +12°C° 0 mm 1 m/s 762 mmHg 93%
    06:00 +13°C° 0 mm 1 m/s 761 mmHg 88%
    07:00 +15°C° 0 mm 2 m/s 761 mmHg 82%
    08:00 +17°C° 0 mm 2 m/s 761 mmHg 76%
    09:00 +19°C° 0 mm 2 m/s 761 mmHg 70%
    10:00 +21°C° 0 mm 2 m/s 761 mmHg 63%
    11:00 +23°C° 0 mm 2 m/s 760 mmHg 57%
    12:00 +24°C° 0 mm 2 m/s 760 mmHg 56%
    13:00 +25°C° 0 mm 3 m/s 760 mmHg 54%
    14:00 +25°C° 0 mm 3 m/s 760 mmHg 53%
    15:00 +25°C° 0 mm 3 m/s 759 mmHg 59%
    16:00 +24°C° 0 mm 2 m/s 759 mmHg 64%
    17:00 +24°C° 0 mm 2 m/s 759 mmHg 70%
    18:00 +21°C° 0 mm 2 m/s 759 mmHg 75%
    19:00 +20°C° 0 mm 2 m/s 758 mmHg 80%
    20:00 +19°C° 0 mm 2 m/s 758 mmHg 86%
    21:00 +18°C° 0 mm 2 m/s 759 mmHg 87%
    22:00 +17°C° 0 mm 2 m/s 759 mmHg 87%
    23:00 +16°C° 0 mm 2 m/s 759 mmHg 88%

    Après-demain, 27 Août, Mardi

    Heure Température Précipitation Vent Pression Humidité
    00:00 +16°C° 0 mm 2 m/s 759 mmHg 91%
    01:00 +15°C° 0 mm 2 m/s 759 mmHg 93%
    02:00 +15°C° 0 mm 2 m/s 759 mmHg 95%
    03:00 +14°C° 0 mm 1 m/s 759 mmHg 96%
    04:00 +14°C° 0 mm 1 m/s 759 mmHg 97%
    05:00 +14°C° 0 mm 1 m/s 759 mmHg 98%
    06:00 +15°C° 0 mm 1 m/s 759 mmHg 93%
    07:00 +18°C° 0 mm 1 m/s 760 mmHg 89%
    08:00 +18°C° 0 mm 2 m/s 760 mmHg 84%
    09:00 +20°C° 0 mm 2 m/s 760 mmHg 76%
    10:00 +21°C° 0 mm 2 m/s 760 mmHg 68%
    11:00 +24°C° 0 mm 3 m/s 760 mmHg 60%
    12:00 +24°C° 0 mm 3 m/s 760 mmHg 57%
    13:00 +25°C° 0 mm 3 m/s 760 mmHg 53%
    14:00 +25°C° 0 mm 3 m/s 760 mmHg 50%
    15:00 +25°C° 0 mm 3 m/s 760 mmHg 53%
    16:00 +24°C° 0 mm 2 m/s 760 mmHg 56%
    17:00 +23°C° 0 mm 2 m/s 760 mmHg 59%
    18:00 +20°C° 0 mm 2 m/s 760 mmHg 64%
    19:00 +19°C° 0 mm 1 m/s 760 mmHg 70%
    20:00 +16°C° 0 mm 1 m/s 760 mmHg 76%
    21:00 +15°C° 0 mm 1 m/s 761 mmHg 77%
    22:00 +15°C° 0 mm 1 m/s 761 mmHg 79%
    23:00 +14°C° 0 mm 1 m/s 761 mmHg 80%

    28 Août, Mercredi

    Heure Température Précipitation Vent Pression Humidité
    00:00 +14°C° 0 mm 1 m/s 761 mmHg 82%
    01:00 +13°C° 0 mm 1 m/s 761 mmHg 84%
    02:00 +13°C° 0 mm 1 m/s 762 mmHg 86%
    03:00 +12°C° 0 mm 1 m/s 762 mmHg 88%
    04:00 +12°C° 0 mm 1 m/s 762 mmHg 89%
    05:00 +12°C° 0 mm 1 m/s 762 mmHg 91%
    06:00 +13°C° 0 mm 1 m/s 762 mmHg 85%
    07:00 +15°C° 0 mm 1 m/s 762 mmHg 78%
    08:00 +16°C° 0 mm 2 m/s 763 mmHg 72%
    09:00 +18°C° 0 mm 2 m/s 763 mmHg 66%
    10:00 +19°C° 0 mm 2 m/s 762 mmHg 60%
    11:00 +21°C° 0 mm 2 m/s 762 mmHg 53%
    12:00 +21°C° 0 mm 2 m/s 762 mmHg 52%
    13:00 +21°C° 0 mm 2 m/s 762 mmHg 50%
    14:00 +23°C° 0 mm 2 m/s 762 mmHg 49%
    15:00 +21°C° 0 mm 2 m/s 762 mmHg 52%
    16:00 +21°C° 0 mm 2 m/s 762 mmHg 55%
    17:00 +20°C° 0 mm 2 m/s 761 mmHg 58%
    18:00 +18°C° 0 mm 2 m/s 762 mmHg 64%
    19:00 +16°C° 0 mm 2 m/s 762 mmHg 71%
    20:00 +14°C° 0 mm 2 m/s 762 mmHg 77%
    21:00 +13°C° 0 mm 2 m/s 762 mmHg 77%
    22:00 +13°C° 0 mm 2 m/s 762 mmHg 77%
    23:00 +12°C° 0 mm 2 m/s 762 mmHg 76%

    29 Août, Jeudi

    Heure Température Précipitation Vent Pression Humidité
    00:00 +10°C° 0 mm 2 m/s 762 mmHg 75%
    01:00 +10°C° 0 mm 2 m/s 762 mmHg 74%
    02:00 +9°C° 0 mm 2 m/s 762 mmHg 72%
    03:00 +9°C° 0 mm 2 m/s 762 mmHg 73%
    04:00 +8°C° 0 mm 2 m/s 762 mmHg 74%
    05:00 +8°C° 0 mm 2 m/s 762 mmHg 75%
    06:00 +10°C° 0 mm 2 m/s 762 mmHg 71%
    07:00 +12°C° 0 mm 2 m/s 762 mmHg 66%
    08:00 +14°C° 0 mm 2 m/s 762 mmHg 62%
    09:00 +16°C° 0 mm 2 m/s 762 mmHg 56%
    10:00 +17°C° 0 mm 2 m/s 762 mmHg 51%
    11:00 +19°C° 0 mm 3 m/s 762 mmHg 45%
    12:00 +20°C° 0 mm 3 m/s 761 mmHg 44%
    13:00 +20°C° 0 mm 3 m/s 761 mmHg 42%
    14:00 +21°C° 0 mm 3 m/s 761 mmHg 40%
    15:00 +21°C° 0 mm 3 m/s 760 mmHg 44%
    16:00 +20°C° 0 mm 2 m/s 760 mmHg 49%
    17:00 +20°C° 0 mm 2 m/s 760 mmHg 53%
    18:00 +18°C° 0 mm 2 m/s 760 mmHg 60%
    19:00 +16°C° 0 mm 2 m/s 760 mmHg 66%
    20:00 +13°C° 0 mm 2 m/s 759 mmHg 73%
    21:00 +13°C° 0 mm 2 m/s 760 mmHg 74%
    22:00 +13°C° 0 mm 2 m/s 760 mmHg 76%
    23:00 +12°C° 0 mm 2 m/s 760 mmHg 77%

    30 Août, Vendredi

    Heure Température Précipitation Vent Pression Humidité
    00:00 +12°C° 0 mm 2 m/s 759 mmHg 80%
    01:00 +10°C° 0 mm 2 m/s 759 mmHg 82%
    02:00 +10°C° 0 mm 2 m/s 759 mmHg 85%
    03:00 +9°C° 0 mm 2 m/s 759 mmHg 85%
    04:00 +9°C° 0 mm 3 m/s 759 mmHg 86%
    05:00 +9°C° 0 mm 3 m/s 759 mmHg 86%
    06:00 +10°C° 0 mm 3 m/s 759 mmHg 81%
    07:00 +12°C° 0 mm 3 m/s 759 mmHg 76%
    08:00 +13°C° 0 mm 3 m/s 759 mmHg 70%
    09:00 +16°C° 0 mm 3 m/s 759 mmHg 65%
    10:00 +18°C° 0 mm 3 m/s 759 mmHg 60%
    11:00 +20°C° 0 mm 4 m/s 759 mmHg 55%
    12:00 +20°C° 0 mm 4 m/s 759 mmHg 54%
    13:00 +21°C° 0 mm 4 m/s 758 mmHg 54%
    14:00 +21°C° 0 mm 4 m/s 758 mmHg 53%
    15:00 +21°C° 0 mm 3 m/s 758 mmHg 57%
    16:00 +20°C° 0 mm 3 m/s 758 mmHg 61%
    17:00 +20°C° 0 mm 2 m/s 758 mmHg 64%
    18:00 +19°C° 0 mm 2 m/s 758 mmHg 68%
    19:00 +18°C° 0 mm 2 m/s 759 mmHg 71%
    20:00 +17°C° 0 mm 2 m/s 759 mmHg 75%
    21:00 +17°C° 0 mm 2 m/s 759 mmHg 76%
    22:00 +16°C° 0 mm 2 m/s 759 mmHg 77%
    23:00 +16°C° 0 mm 2 m/s 759 mmHg 78%
    Voir plus